Hourly Weather Klapowka

Today, 30 July, Friday

Time Temperature Precipitation Wind Pressure Humidity
00:00 +19°C° 0 mm 2 mps 739 mmHg 74%
01:00 +18°C° 0 mm 2 mps 739 mmHg 77%
02:00 +18°C° 0 mm 2 mps 739 mmHg 79%
03:00 +18°C° 0 mm 2 mps 739 mmHg 80%
04:00 +17°C° 0 mm 2 mps 739 mmHg 82%
05:00 +19°C° 0 mm 2 mps 739 mmHg 75%
06:00 +21°C° 0 mm 2 mps 739 mmHg 68%
07:00 +22°C° 0 mm 3 mps 739 mmHg 61%
08:00 +25°C° 0 mm 3 mps 739 mmHg 55%
09:00 +26°C° 0 mm 3 mps 739 mmHg 50%
10:00 +28°C° 0 mm 4 mps 739 mmHg 45%
11:00 +29°C° 0 mm 4 mps 739 mmHg 43%
12:00 +30°C° 0 mm 4 mps 738 mmHg 42%
13:00 +30°C° 0 mm 4 mps 738 mmHg 40%
14:00 +30°C° 0 mm 3 mps 738 mmHg 42%
15:00 +30°C° 0 mm 3 mps 738 mmHg 45%
16:00 +29°C° 0 mm 2 mps 737 mmHg 47%
17:00 +28°C° 0 mm 2 mps 737 mmHg 52%
18:00 +27°C° 0 mm 1 mps 737 mmHg 56%
19:00 +24°C° 0 mm 0 mps 737 mmHg 61%
20:00 +25°C° 0.1 mm 1 mps 737 mmHg 64%
21:00 +23°C° 0.1 mm 1 mps 737 mmHg 68%
22:00 +22°C° 0.1 mm 1 mps 737 mmHg 71%
23:00 +22°C° 0 mm 1 mps 737 mmHg 74%

Tomorrow, 31 July, Saturday

Time Temperature Precipitation Wind Pressure Humidity
00:00 +21°C° 0 mm 1 mps 737 mmHg 76%
01:00 +21°C° 0 mm 1 mps 737 mmHg 78%
02:00 +20°C° 0 mm 1 mps 737 mmHg 78%
03:00 +20°C° 0 mm 1 mps 736 mmHg 79%
04:00 +20°C° 0 mm 1 mps 736 mmHg 80%
05:00 +22°C° 0 mm 1 mps 736 mmHg 75%
06:00 +23°C° 0 mm 1 mps 737 mmHg 70%
07:00 +25°C° 0 mm 2 mps 737 mmHg 65%
08:00 +27°C° 0 mm 2 mps 736 mmHg 59%
09:00 +28°C° 0 mm 3 mps 736 mmHg 53%
10:00 +30°C° 0 mm 3 mps 736 mmHg 48%
11:00 +30°C° 0 mm 3 mps 736 mmHg 48%
12:00 +30°C° 0 mm 3 mps 735 mmHg 48%
13:00 +30°C° 0 mm 3 mps 735 mmHg 47%
14:00 +28°C° 0.1 mm 4 mps 735 mmHg 57%
15:00 +24°C° 0.1 mm 6 mps 736 mmHg 68%
16:00 +22°C° 0.1 mm 7 mps 736 mmHg 78%
17:00 +21°C° 0.6 mm 6 mps 736 mmHg 83%
18:00 +20°C° 0.6 mm 4 mps 736 mmHg 88%
19:00 +19°C° 0.6 mm 3 mps 737 mmHg 93%
20:00 +18°C° 0 mm 2 mps 737 mmHg 94%
21:00 +18°C° 0 mm 2 mps 737 mmHg 95%
22:00 +17°C° 0 mm 2 mps 738 mmHg 96%
23:00 +17°C° 0 mm 2 mps 738 mmHg 96%

Day after tomorrow, 1 August, Sunday

Time Temperature Precipitation Wind Pressure Humidity
00:00 +17°C° 0 mm 2 mps 738 mmHg 95%
01:00 +16°C° 0 mm 2 mps 737 mmHg 94%
02:00 +16°C° 0 mm 2 mps 737 mmHg 93%
03:00 +16°C° 0 mm 2 mps 737 mmHg 92%
04:00 +16°C° 0 mm 1 mps 737 mmHg 91%
05:00 +19°C° 0 mm 1 mps 737 mmHg 86%
06:00 +20°C° 0 mm 1 mps 737 mmHg 80%
07:00 +22°C° 0 mm 1 mps 737 mmHg 74%
08:00 +24°C° 0 mm 2 mps 737 mmHg 66%
09:00 +25°C° 0 mm 3 mps 737 mmHg 59%
10:00 +27°C° 0 mm 4 mps 737 mmHg 51%
11:00 +28°C° 0.1 mm 3 mps 736 mmHg 50%
12:00 +29°C° 0.1 mm 3 mps 736 mmHg 50%
13:00 +29°C° 0.1 mm 3 mps 735 mmHg 49%
14:00 +30°C° 0 mm 3 mps 735 mmHg 47%
15:00 +31°C° 0 mm 3 mps 734 mmHg 45%
16:00 +33°C° 0 mm 3 mps 733 mmHg 42%
17:00 +29°C° 0.4 mm 3 mps 733 mmHg 56%
18:00 +26°C° 0.4 mm 4 mps 733 mmHg 70%
19:00 +22°C° 0.4 mm 4 mps 733 mmHg 84%
20:00 +21°C° 1.1 mm 4 mps 734 mmHg 88%
21:00 +20°C° 1.1 mm 3 mps 734 mmHg 92%
22:00 +19°C° 1.1 mm 3 mps 735 mmHg 96%
23:00 +18°C° 0.5 mm 3 mps 735 mmHg 96%

2 August, Monday

Time Temperature Precipitation Wind Pressure Humidity
00:00 +18°C° 0.5 mm 3 mps 735 mmHg 96%
01:00 +17°C° 0.5 mm 3 mps 735 mmHg 96%
02:00 +17°C° 0 mm 4 mps 735 mmHg 95%
03:00 +15°C° 0 mm 4 mps 736 mmHg 94%
04:00 +15°C° 0 mm 5 mps 736 mmHg 93%
05:00 +15°C° 0 mm 4 mps 737 mmHg 92%
06:00 +15°C° 0 mm 4 mps 737 mmHg 92%
07:00 +15°C° 0 mm 4 mps 737 mmHg 91%
08:00 +17°C° 0 mm 4 mps 738 mmHg 83%
09:00 +19°C° 0 mm 4 mps 738 mmHg 76%
10:00 +20°C° 0 mm 4 mps 739 mmHg 68%
11:00 +21°C° 0 mm 4 mps 739 mmHg 61%
12:00 +24°C° 0 mm 3 mps 739 mmHg 55%
13:00 +25°C° 0 mm 3 mps 738 mmHg 48%
14:00 +25°C° 0 mm 3 mps 739 mmHg 49%
15:00 +25°C° 0 mm 3 mps 739 mmHg 51%
16:00 +24°C° 0 mm 3 mps 739 mmHg 53%
17:00 +22°C° 0 mm 3 mps 739 mmHg 57%
18:00 +21°C° 0 mm 2 mps 739 mmHg 61%
19:00 +21°C° 0 mm 1 mps 739 mmHg 65%
20:00 +21°C° 0 mm 1 mps 739 mmHg 66%
21:00 +20°C° 0 mm 1 mps 739 mmHg 67%
22:00 +20°C° 0 mm 1 mps 739 mmHg 68%
23:00 +18°C° 0 mm 2 mps 740 mmHg 70%

3 August, Tuesday

Time Temperature Precipitation Wind Pressure Humidity
00:00 +18°C° 0 mm 2 mps 740 mmHg 72%
01:00 +17°C° 0 mm 2 mps 740 mmHg 74%
02:00 +17°C° 0.1 mm 2 mps 740 mmHg 76%
03:00 +17°C° 0.1 mm 2 mps 741 mmHg 78%
04:00 +16°C° 0.1 mm 2 mps 741 mmHg 80%
05:00 +17°C° 0.1 mm 2 mps 741 mmHg 78%
06:00 +18°C° 0.1 mm 2 mps 742 mmHg 75%
07:00 +19°C° 0.1 mm 3 mps 742 mmHg 72%
08:00 +20°C° 0 mm 3 mps 742 mmHg 65%
09:00 +22°C° 0 mm 3 mps 742 mmHg 58%
10:00 +24°C° 0 mm 3 mps 742 mmHg 51%
11:00 +25°C° 0 mm 3 mps 742 mmHg 47%
12:00 +26°C° 0 mm 3 mps 742 mmHg 44%
13:00 +26°C° 0 mm 3 mps 742 mmHg 41%
14:00 +26°C° 0 mm 3 mps 741 mmHg 41%
15:00 +26°C° 0 mm 3 mps 741 mmHg 41%
16:00 +26°C° 0 mm 2 mps 741 mmHg 41%
17:00 +25°C° 0 mm 2 mps 741 mmHg 46%
18:00 +23°C° 0 mm 2 mps 741 mmHg 52%
19:00 +20°C° 0 mm 2 mps 741 mmHg 58%
20:00 +19°C° 0.1 mm 2 mps 741 mmHg 61%
21:00 +18°C° 0.1 mm 2 mps 741 mmHg 65%
22:00 +17°C° 0.1 mm 2 mps 741 mmHg 69%
23:00 +17°C° 0 mm 2 mps 741 mmHg 71%

4 August, Wednesday

Time Temperature Precipitation Wind Pressure Humidity
00:00 +16°C° 0 mm 2 mps 741 mmHg 73%
01:00 +16°C° 0 mm 2 mps 741 mmHg 76%
02:00 +16°C° 0 mm 2 mps 741 mmHg 78%
03:00 +16°C° 0 mm 2 mps 741 mmHg 80%
04:00 +15°C° 0 mm 2 mps 740 mmHg 83%
05:00 +17°C° 0 mm 2 mps 740 mmHg 80%
06:00 +18°C° 0 mm 3 mps 740 mmHg 78%
07:00 +19°C° 0 mm 3 mps 740 mmHg 76%
08:00 +20°C° 0.1 mm 3 mps 740 mmHg 74%
09:00 +20°C° 0.1 mm 3 mps 740 mmHg 73%
10:00 +21°C° 0.1 mm 3 mps 740 mmHg 71%
11:00 +21°C° 0.2 mm 3 mps 740 mmHg 74%
12:00 +21°C° 0.2 mm 2 mps 740 mmHg 77%
13:00 +20°C° 0.2 mm 2 mps 740 mmHg 80%
14:00 +20°C° 0.6 mm 2 mps 740 mmHg 82%
15:00 +20°C° 0.6 mm 2 mps 740 mmHg 84%
16:00 +20°C° 0.6 mm 3 mps 739 mmHg 86%
17:00 +19°C° 0.3 mm 3 mps 739 mmHg 89%
18:00 +18°C° 0.3 mm 3 mps 739 mmHg 92%
19:00 +18°C° 0.3 mm 3 mps 739 mmHg 94%
20:00 +17°C° 0 mm 3 mps 739 mmHg 95%
21:00 +17°C° 0 mm 2 mps 739 mmHg 96%
22:00 +16°C° 0 mm 2 mps 740 mmHg 97%
23:00 +16°C° 0 mm 2 mps 739 mmHg 97%
Show more